Volver al catálogo

SAUDIGEOSAT1/HELLASSAT4

ActivoComunicacionesGEO
NORAD 44034·PAYLOAD·🇬🇷 Greece

Lanzado Feb 5, 2019 desde Guiana Space Centre

Loading…

TLE

ActualizadoSource: Space-Track

Época: Sep 14, 2026, 20:49 UTC

1 44034U 19007A   26257.86800716  .00000145  00000-0  00000-0 0  9990
2 44034   0.0618 131.5314 0006219  32.1427 181.6593  1.00267921 28277

Sigue SAUDIGEOSAT1/HELLASSAT4 en tiempo real con AllMySat

Download on the App Store